SCP
0 0 0 0 0 0 0 -0 0 0 0 0 0 0 0 0 0 0 0 0 -0 0 0 1 1 1 1 1 1 1 0 0 0 0 0 0 -0 0 0 -0 0 0 -0 -0 -0 0 0 0 0
0 0 0 0 0 0 0 0 -0 0 0 0 0 0 0 0 0 0 0 0 -0 0 0 1 1 1 1 1 1 1 1 0 0 0 0 0 -0 0 0 0 0 0 0 0 0 0 0 0 0
0 0 0 0 0 0 0 0 -0 0 0 -0 -0 0 0 0 0 0 0 0 0 0 0 0 1 1 1 1 1 1 1 0 0 0 0 0 0 0 0 0 0 0 0 0 0 0 0 -0 0
0 0 0 0 0 0 0 0 0 0 0 0 0 0 0 0 0 0 1 0 0 1 -0 -0 0 1 1 1 1 1 1 1 0 0 0 0 0 -0 0 0 -0 0 0 0 0 0 -0 -0 0
0 0 0 0 0 0 0 0 -0 0 0 0 0 0 0 0 0 0 0 1 1 1 1 -0 0 0 1 1 1 1 1 1 0 0 0 0 0 -0 0 0 0 -0 0 0 -0 -0 -0 -0 -0
0 0 0 0 0 0 0 0 0 0 0 0 0 0 0 -0 0 0 0 0 1 1 1 0 0 0 1 1 1 1 1 1 1 0 0 0 0 0 0 0 0 0 0 0 -0 -0 -0 -0 -0
0 0 0 0 -0 -0 0 0 0 0 0 0 0 0 0 -0 -0 0 0 0 0 0 -0 0 0 0 1 1 1 1 1 1 1 1 0 0 0 0 0 0 0 0 0 -0 -0 -0 -0 -0 0
0 0 0 0 0 0 -0 -0 0 0 0 0 0 0 0 -0 -0 0 0 0 0 0 0 -0 0 0 1 1 1 1 1 1 1 1 1 0 0 0 0 0 0 0 0 0 -0 -0 -0 -0 0
0 0 0 0 0 0 -0 0 0 0 0 0 0 0 0 0 -0 0 0 0 0 0 0 1 0 1 0 1 1 1 1 1 1 1 1 1 1 0 0 0 0 0 0 0 0 0 -0 -0 0
0 0 0 0 0 0 0 0 0 0 0 0 0 0 0 0 -0 -0 -0 0 0 0 0 0 2 1 1 1 1 1 1 1 1 1 1 1 1 1 0 0 0 0 0 0 0 0 0 0 0
0 0 0 0 0 0 0 0 0 0 0 0 0 0 0 0 0 0 0 0 0 0 0 0 0 3 3 3 2 2 2 1 1 1 1 1 1 1 1 0 0 0 0 0 0 0 0 0 0
0 0 0 0 0 0 0 0 0 0 0 0 0 0 0 0 0 0 0 0 0 0 0 0 0 0 4 3 3 2 2 2 2 2 1 1 1 1 1 1 1 0 0 0 0 0 0 0 0
0 0 0 0 0 0 0 0 0 0 0 0 0 0 0 0 0 0 0 0 0 0 0 0 0 -0 1 4 3 3 2 2 2 2 2 2 1 1 1 1 1 1 0 0 0 0 0 0 0
0 0 0 0 0 0 0 0 0 0 0 0 0 0 0 0 0 0 0 0 0 0 0 0 0 0 -0 1 4 2 3 3 2 2 2 2 1 1 1 1 1 1 0 0 0 0 0 0 0
0 0 0 0 0 0 0 0 0 0 0 0 0 0 0 0 0 0 0 0 0 0 0 0 0 0 0 0 2 3 2 2 3 3 3 2 2 1 1 1 1 1 1 0 0 0 0 0 0
0 0 0 0 0 0 0 0 0 0 0 0 0 0 0 0 0 0 0 -0 0 -0 0 0 0 0 0 0 1 2 3 2 2 3 3 3 3 2 2 1 1 1 1 0 0 0 0 0 0
0 0 0 0 0 0 0 0 0 0 0 0 0 0 0 0 0 0 0 -0 -0 -0 -0 -0 0 0 0 0 0 0 1 2 2 2 4 4 4 3 2 2 1 1 1 1 0 0 0 0 0
0 0 0 0 0 0 0 0 0 0 0 0 0 0 0 0 0 0 0 0 0 0 0 0 0 0 0 0 0 0 1 1 2 1 3 5 6 4 3 2 2 1 1 1 0 0 0 0 0
0 0 0 0 0 0 0 0 0 0 0 0 0 0 0 0 0 0 0 0 -0 0 0 0 0 0 0 0 0 0 0 0 1 2 1 2 6 5 4 3 2 2 1 1 1 1 0 0 0
0 0 0 0 0 0 0 0 0 0 0 0 0 0 0 0 0 0 0 -0 0 0 0 0 0 0 0 0 0 0 0 0 0 0 1 1 3 5 4 3 2 2 2 1 1 1 1 0 0
0 0 0 0 0 0 0 0 0 0 0 0 0 0 0 -0 -0 -0 -0 0 0 0 0 0 0 0 0 0 0 0 0 0 0 0 0 1 2 3 4 2 3 2 2 1 1 1 1 1 0
0 0 0 0 0 0 0 0 0 0 0 0 0 0 0 -0 -0 0 0 0 0 0 0 0 0 0 0 0 0 0 0 0 0 0 0 0 1 3 3 2 2 3 2 2 1 1 1 1 1
0 0 0 0 0 0 0 0 0 0 0 0 0 0 -0 -0 0 0 0 0 0 -0 0 0 0 0 0 0 0 0 0 -0 -0 0 0 0 0 1 3 2 2 1 2 2 2 1 1 1 1
0 0 0 0 0 0 0 0 0 0 0 0 0 0 0 0 0 0 0 0 -0 0 0 0 0 0 0 0 0 0 0 -0 -0 -0 -0 -0 -0 1 3 3 2 2 2 1 1 1 1 1 1
0 0 0 0 0 0 0 0 0 0 0 0 0 0 0 0 0 0 0 -0 0 0 0 0 0 0 0 0 0 0 0 -0 -0 -0 -0 -0 -0 -0 2 3 2 2 2 2 1 1 1 1 1
0 0 0 0 0 0 0 0 0 0 0 0 0 0 0 0 0 0 0 0 0 0 0 0 0 0 0 0 0 0 0 0 -0 -0 -0 -0 -0 -0 0 3 2 2 2 2 2 1 1 1 1
0 0 0 0 0 0 0 0 0 0 0 0 0 0 0 0 0 0 0 0 0 0 0 0 0 0 0 0 0 0 0 0 0 0 -0 -0 -0 -0 0 2 3 3 2 2 2 1 1 1 1
0 0 0 0 0 0 0 0 0 0 0 0 0 0 0 0 0 0 0 0 0 0 0 0 0 0 0 0 0 0 0 0 0 0 0 0 -0 -0 0 0 0 2 1 2 1 1 1 1 1
0 0 0 0 0 0 0 0 0 0 0 0 0 0 0 -0 0 0 0 0 0 0 0 0 0 0 -0 0 -0 -0 0 0 0 0 0 0 0 0 0 0 0 0 0 0 0 0 1 1 1
0 0 0 0 0 0 0 0 0 0 0 0 0 0 -0 -0 0 0 0 -0 0 0 0 0 0 0 0 0 0 -0 0 0 0 0 0 0 0 0 0 0 0 0 0 0 0 0 0 0 0
Wind_Speed_500mb
3 5 15 17 7 9 10 16 5 24 11 24 19 17 4 28 9 12 26 37 32 21 10 13 25 28 25 23 22 19 19 19 19 20 20 21 22 19 17 15 14 14 13 14 16 17 18 17 13
5 8 7 8 6 3 11 14 8 12 17 20 35 36 13 5 38 29 28 31 29 29 10 7 15 29 27 24 23 22 20 20 20 19 20 21 22 20 18 17 16 14 14 12 12 13 12 11 9
9 6 5 7 5 11 10 9 4 15 26 21 11 26 12 8 39 19 32 31 21 23 8 13 26 32 31 26 25 23 21 22 21 20 20 21 22 21 20 20 18 15 14 13 14 13 11 10 9
16 5 9 4 13 20 19 28 13 5 16 28 15 11 43 41 38 47 26 27 20 19 24 23 25 27 29 29 26 24 23 22 21 22 22 22 23 23 23 23 21 18 15 15 16 13 10 10 9
15 10 2 5 19 19 20 54 14 13 11 48 48 23 21 36 25 33 39 36 27 19 24 27 23 14 25 29 28 27 26 25 24 25 24 24 24 25 25 25 24 20 18 17 17 13 12 10 11
9 4 6 8 15 10 12 57 46 32 49 53 38 26 20 25 27 24 22 33 36 39 23 20 24 22 23 31 32 30 29 28 27 27 27 28 27 28 28 28 27 23 21 20 19 17 15 14 14
9 4 8 12 16 16 8 29 44 29 39 35 27 8 22 40 32 25 24 26 31 30 38 30 30 30 29 35 38 35 32 31 30 30 30 31 30 31 31 31 30 26 24 22 21 20 19 17 15
9 8 8 9 10 13 16 19 36 46 18 29 30 10 15 27 47 42 30 30 17 25 38 40 31 35 30 32 41 39 35 34 33 32 32 33 34 34 35 34 33 30 27 25 25 24 21 19 18
8 5 7 12 5 13 29 22 32 29 33 34 25 36 40 54 60 50 40 37 37 19 24 34 38 36 32 28 42 44 41 38 37 36 36 37 39 39 39 37 35 33 30 29 29 27 24 21 20
14 8 14 14 9 8 20 19 31 20 34 28 41 44 53 61 68 60 47 43 41 35 33 33 34 42 37 38 31 46 46 44 43 41 41 41 42 42 42 41 38 36 33 33 32 29 27 25 22
15 13 13 24 36 23 16 23 31 29 11 33 41 51 46 41 39 43 40 39 41 39 36 36 27 25 43 43 43 34 43 47 49 47 46 45 46 46 46 43 45 44 41 39 37 34 31 27 23
8 25 19 27 34 14 11 25 19 30 37 44 43 35 36 29 28 25 31 38 45 47 50 47 47 40 26 47 48 47 43 44 48 56 53 52 52 52 51 50 50 50 47 44 40 37 32 30 29
11 14 31 34 27 28 25 23 20 33 31 25 33 19 30 28 26 30 31 31 35 41 51 58 64 66 57 37 50 53 56 51 53 51 60 58 58 58 55 49 51 47 48 47 44 40 36 35 30
27 39 33 35 44 48 28 23 9 36 37 34 8 16 22 25 31 20 23 27 23 27 36 43 47 53 64 56 46 54 62 66 55 47 50 60 62 62 63 58 56 50 46 49 48 42 40 41 38
28 17 22 41 47 21 28 5 14 41 34 5 17 30 28 29 29 40 47 49 51 45 42 37 40 52 54 63 59 53 58 65 76 62 64 55 58 62 67 66 62 55 48 43 43 38 38 40 37
7 9 5 23 19 17 26 9 16 29 17 14 35 33 30 33 35 42 55 61 65 73 66 62 49 43 49 63 61 66 61 64 68 73 66 65 62 63 72 67 63 64 53 47 45 43 41 38 40
8 10 13 17 22 5 12 6 5 27 29 32 40 47 43 41 42 53 63 68 71 75 83 81 71 58 49 45 59 53 67 64 72 75 80 78 72 66 78 75 65 65 58 57 54 53 47 47 45
7 4 11 9 13 20 20 10 11 38 19 41 48 55 54 49 52 58 66 73 74 70 75 81 74 73 61 54 52 57 47 61 69 76 80 90 84 73 82 77 71 68 64 58 57 58 52 51 48
8 9 12 12 17 17 14 9 14 4 46 44 51 54 55 54 59 64 71 80 78 79 75 76 83 63 67 63 51 60 59 43 57 72 84 92 92 89 84 85 75 70 68 67 60 55 60 61 53
9 14 17 17 27 7 15 16 19 27 35 47 45 47 51 56 60 68 72 72 87 88 89 85 80 71 63 66 64 54 49 55 48 58 80 92 98 93 98 97 91 84 77 75 71 71 70 62 56
12 13 18 24 8 10 17 14 11 21 37 40 39 36 43 51 64 69 77 91 91 87 85 87 88 82 66 64 71 70 61 60 66 64 65 87 93 94 98 103 99 95 81 82 81 79 75 71 62
12 18 18 16 14 5 9 12 12 14 19 25 35 44 62 66 64 73 90 95 91 86 84 83 83 80 72 62 66 74 72 73 77 75 67 64 93 95 93 105 104 107 90 87 83 75 76 73 70
19 5 9 12 17 16 20 10 9 10 15 23 35 45 53 58 64 78 81 83 82 80 79 79 77 76 70 68 62 65 77 83 80 84 81 84 79 95 98 97 116 112 112 98 87 82 77 80 74
13 10 19 27 17 9 38 20 5 7 8 18 34 43 55 57 58 66 73 73 74 72 69 69 69 68 62 58 62 65 77 88 83 87 95 97 89 75 108 107 110 106 105 100 97 81 78 80 78
12 4 7 7 3 10 19 11 3 15 21 24 25 38 47 49 54 66 73 74 75 76 71 65 63 58 49 44 50 55 58 66 76 92 102 100 87 96 129 119 115 109 104 101 91 82 76 76 76
9 22 8 8 2 10 12 5 5 21 28 25 26 33 40 48 57 61 69 73 73 78 68 63 61 60 43 34 37 37 46 56 61 68 69 67 70 78 95 125 118 102 96 96 86 83 76 71 71
5 6 12 7 7 7 6 10 5 14 17 23 27 35 43 51 55 62 68 73 78 74 70 68 72 64 48 32 21 19 25 37 41 46 54 66 55 54 45 117 106 87 87 90 79 73 68 68 67
10 9 7 5 4 8 6 10 3 8 15 17 20 32 41 45 56 65 69 74 76 74 71 60 66 71 62 36 22 12 10 36 27 46 59 47 38 78 21 90 77 66 68 64 61 63 60 60 63
11 11 2 5 3 7 4 5 3 6 5 11 18 28 36 44 56 65 69 76 79 78 76 69 71 75 67 58 46 39 32 39 43 22 14 21 10 20 47 40 70 66 64 70 64 54 44 39 47
26 11 11 7 6 2 3 7 6 12 14 14 16 24 31 39 52 61 69 76 80 83 80 72 70 77 76 57 61 52 59 69 57 38 39 50 41 42 17 24 41 34 41 55 49 44 31 48 53
Wind_Direction_500mb
310 326 0 346 41 75 260 274 257 32 27 47 55 73 94 34 359 122 33 29 358 346 317 239 214 214 204 188 178 180 176 176 180 176 181 186 189 191 186 180 177 168 154 165 172 180 180 194 201
34 76 345 296 94 44 271 240 76 93 80 61 59 52 61 65 100 65 24 8 19 358 336 268 269 220 208 196 182 183 180 180 185 183 188 193 196 196 193 187 183 170 171 178 179 194 195 200 186
56 0 311 144 182 213 256 350 1 128 97 84 88 52 38 55 54 53 23 24 29 24 323 327 303 223 209 201 190 187 184 186 188 189 195 198 203 202 197 193 190 183 190 184 194 198 205 197 187
4 310 256 93 264 261 250 278 292 60 90 44 32 48 57 65 73 58 29 4 34 35 340 338 339 220 212 205 195 191 191 194 194 193 200 204 208 208 202 197 193 195 195 195 202 204 201 190 186
327 277 306 239 260 281 305 329 93 53 46 43 45 349 81 55 84 55 39 34 39 360 355 337 321 292 237 219 203 198 198 200 201 199 203 209 210 211 208 202 198 201 202 199 208 209 202 197 180
324 301 8 278 285 318 341 14 35 52 55 31 33 40 70 31 13 10 23 34 27 10 332 329 315 307 267 238 218 207 204 207 205 204 206 211 211 213 212 206 203 206 205 207 209 209 203 194 186
203 84 241 288 294 312 36 17 30 26 41 32 24 29 98 53 30 9 344 347 24 4 348 326 305 302 301 245 230 216 211 214 211 209 209 211 210 211 213 209 208 209 209 210 209 209 203 197 194
349 88 292 265 278 297 28 35 19 20 27 13 18 33 323 359 356 356 352 323 332 359 339 337 321 316 304 256 232 226 218 219 217 212 211 213 210 211 211 211 212 212 213 212 208 206 205 203 200
260 46 268 253 310 300 4 14 4 350 353 343 334 330 318 303 332 348 346 328 330 318 346 331 327 319 309 297 239 234 228 224 221 217 214 213 213 209 211 211 216 216 217 214 208 206 208 205 206
161 159 234 255 331 319 345 1 338 356 341 322 325 310 302 307 314 336 346 334 324 327 315 330 339 320 304 301 262 247 239 233 230 222 218 216 215 212 212 214 217 220 219 217 212 211 210 207 205
214 211 246 284 311 344 347 347 343 347 327 320 316 313 315 317 318 319 329 332 326 318 304 299 316 329 295 292 276 255 246 244 238 231 224 219 216 211 213 219 219 219 218 216 214 213 212 206 198
257 243 275 284 298 326 327 315 305 286 282 290 292 297 306 301 307 326 331 322 321 317 312 303 292 303 313 287 278 259 255 258 253 240 229 223 219 215 215 219 220 222 219 217 217 217 213 204 198
321 305 298 290 306 303 287 266 253 279 282 291 290 310 329 335 330 337 356 351 335 325 315 308 301 294 295 291 274 263 258 258 254 247 236 228 223 220 216 219 221 221 221 220 220 217 211 199 195
302 306 296 300 287 274 257 257 273 287 291 285 282 339 339 29 49 22 356 353 335 326 316 308 295 293 299 295 286 265 257 252 249 251 239 234 227 220 217 216 218 223 227 225 221 217 210 201 195
315 321 302 269 256 232 223 323 263 267 284 293 318 74 71 21 2 357 343 336 329 316 312 306 294 292 291 288 283 277 264 256 239 239 246 238 228 219 216 218 221 223 221 221 216 212 198 202 208
283 288 303 284 206 230 139 227 241 270 294 307 93 66 45 12 351 338 334 324 318 315 306 300 297 287 287 281 283 283 277 253 245 229 232 233 231 223 217 220 221 221 216 217 214 207 205 209 214
238 231 195 291 351 102 180 247 304 338 301 87 65 52 37 4 340 337 328 321 320 315 307 297 288 285 281 275 276 289 267 267 249 238 227 232 229 226 222 221 221 218 213 215 215 209 214 210 217
301 211 309 297 310 334 313 301 338 296 51 66 50 40 29 9 352 335 327 323 319 313 307 303 291 279 277 276 267 273 284 264 254 244 233 229 228 221 222 221 219 215 216 211 213 213 211 218 218
321 298 279 286 290 287 276 303 281 27 71 58 44 32 19 359 340 339 336 329 326 319 310 303 304 288 279 274 275 259 268 284 264 250 243 231 229 228 221 220 217 213 216 217 214 213 216 217 220
311 292 286 276 269 307 328 310 33 80 78 63 48 31 11 354 348 344 338 332 330 324 318 311 307 300 287 280 271 276 271 249 266 256 251 241 230 234 224 219 218 218 215 219 216 211 212 215 214
274 261 271 270 307 359 319 290 116 88 67 56 46 35 12 358 349 343 337 336 332 328 321 315 309 305 296 287 277 270 264 259 245 256 255 245 233 234 225 216 215 216 214 214 215 211 213 211 210
251 258 300 331 350 274 60 282 94 116 75 51 31 24 4 355 348 344 341 336 333 331 324 318 313 310 302 291 282 273 269 263 247 245 264 252 241 231 230 218 216 210 214 215 218 212 214 214 213
271 333 329 307 287 293 258 254 121 6 9 18 20 19 1 352 350 343 336 335 335 335 329 325 319 314 306 296 284 276 267 262 255 248 249 256 247 233 232 223 218 211 211 216 217 215 221 212 215
318 340 293 269 250 259 257 234 6 23 18 18 19 7 355 352 345 335 338 342 344 343 340 335 330 320 312 299 288 275 267 264 260 253 251 253 257 255 232 226 222 214 213 216 219 214 214 213 215
279 280 312 319 10 228 355 14 51 78 57 41 13 357 352 346 342 343 348 352 353 352 352 350 346 334 318 304 287 281 276 267 259 254 252 262 271 269 220 221 217 216 212 215 212 212 214 215 216
279 209 197 262 280 272 305 212 160 95 69 40 10 355 351 350 350 351 357 0 0 357 0 359 357 351 339 314 291 269 264 265 262 257 262 257 251 274 236 214 214 213 211 212 210 213 215 216 220
295 216 220 260 310 9 176 96 102 75 54 33 17 358 355 351 354 1 4 8 7 2 4 10 7 6 1 354 321 269 251 247 249 256 242 247 261 305 304 198 208 205 210 209 209 214 216 219 223
219 260 344 351 317 275 263 164 185 15 17 25 14 359 350 351 4 12 12 14 11 11 12 14 13 15 11 23 33 33 187 197 192 210 218 225 252 246 346 183 186 198 202 210 210 217 221 226 229
254 236 45 1 204 223 285 257 101 100 77 42 15 354 352 357 14 16 17 20 17 18 23 17 26 21 21 36 45 64 91 142 180 140 157 179 82 206 260 133 171 179 193 194 196 208 216 235 240
311 212 215 155 270 268 233 252 96 98 72 43 22 353 4 9 20 23 23 23 22 25 27 25 30 26 25 32 45 54 81 95 101 119 116 119 123 121 97 64 104 158 147 170 179 197 205 207 220
Wind_Speed_850mb
3 5 15 17 7 9 10 16 5 24 11 24 19 17 4 28 9 12 26 37 32 21 10 13 25 28 25 23 22 19 19 19 19 20 20 21 22 19 17 15 14 14 13 14 16 17 18 17 13
5 8 7 8 6 3 11 14 8 12 17 20 35 36 13 5 38 29 28 31 29 29 10 7 15 29 27 24 23 22 20 20 20 19 20 21 22 20 18 17 16 14 14 12 12 13 12 11 9
9 6 5 7 5 11 10 9 4 15 26 21 11 26 12 8 39 19 32 31 21 23 8 13 26 32 31 26 25 23 21 22 21 20 20 21 22 21 20 20 18 15 14 13 14 13 11 10 9
16 5 9 4 13 20 19 28 13 5 16 28 15 11 43 41 38 47 26 27 20 19 24 23 25 27 29 29 26 24 23 22 21 22 22 22 23 23 23 23 21 18 15 15 16 13 10 10 9
15 10 2 5 19 19 20 54 14 13 11 48 48 23 21 36 25 33 39 36 27 19 24 27 23 14 25 29 28 27 26 25 24 25 24 24 24 25 25 25 24 20 18 17 17 13 12 10 11
9 4 6 8 15 10 12 57 46 32 49 53 38 26 20 25 27 24 22 33 36 39 23 20 24 22 23 31 32 30 29 28 27 27 27 28 27 28 28 28 27 23 21 20 19 17 15 14 14
9 4 8 12 16 16 8 29 44 29 39 35 27 8 22 40 32 25 24 26 31 30 38 30 30 30 29 35 38 35 32 31 30 30 30 31 30 31 31 31 30 26 24 22 21 20 19 17 15
9 8 8 9 10 13 16 19 36 46 18 29 30 10 15 27 47 42 30 30 17 25 38 40 31 35 30 32 41 39 35 34 33 32 32 33 34 34 35 34 33 30 27 25 25 24 21 19 18
8 5 7 12 5 13 29 22 32 29 33 34 25 36 40 54 60 50 40 37 37 19 24 34 38 36 32 28 42 44 41 38 37 36 36 37 39 39 39 37 35 33 30 29 29 27 24 21 20
14 8 14 14 9 8 20 19 31 20 34 28 41 44 53 61 68 60 47 43 41 35 33 33 34 42 37 38 31 46 46 44 43 41 41 41 42 42 42 41 38 36 33 33 32 29 27 25 22
15 13 13 24 36 23 16 23 31 29 11 33 41 51 46 41 39 43 40 39 41 39 36 36 27 25 43 43 43 34 43 47 49 47 46 45 46 46 46 43 45 44 41 39 37 34 31 27 23
8 25 19 27 34 14 11 25 19 30 37 44 43 35 36 29 28 25 31 38 45 47 50 47 47 40 26 47 48 47 43 44 48 56 53 52 52 52 51 50 50 50 47 44 40 37 32 30 29
11 14 31 34 27 28 25 23 20 33 31 25 33 19 30 28 26 30 31 31 35 41 51 58 64 66 57 37 50 53 56 51 53 51 60 58 58 58 55 49 51 47 48 47 44 40 36 35 30
27 39 33 35 44 48 28 23 9 36 37 34 8 16 22 25 31 20 23 27 23 27 36 43 47 53 64 56 46 54 62 66 55 47 50 60 62 62 63 58 56 50 46 49 48 42 40 41 38
28 17 22 41 47 21 28 5 14 41 34 5 17 30 28 29 29 40 47 49 51 45 42 37 40 52 54 63 59 53 58 65 76 62 64 55 58 62 67 66 62 55 48 43 43 38 38 40 37
7 9 5 23 19 17 26 9 16 29 17 14 35 33 30 33 35 42 55 61 65 73 66 62 49 43 49 63 61 66 61 64 68 73 66 65 62 63 72 67 63 64 53 47 45 43 41 38 40
8 10 13 17 22 5 12 6 5 27 29 32 40 47 43 41 42 53 63 68 71 75 83 81 71 58 49 45 59 53 67 64 72 75 80 78 72 66 78 75 65 65 58 57 54 53 47 47 45
7 4 11 9 13 20 20 10 11 38 19 41 48 55 54 49 52 58 66 73 74 70 75 81 74 73 61 54 52 57 47 61 69 76 80 90 84 73 82 77 71 68 64 58 57 58 52 51 48
8 9 12 12 17 17 14 9 14 4 46 44 51 54 55 54 59 64 71 80 78 79 75 76 83 63 67 63 51 60 59 43 57 72 84 92 92 89 84 85 75 70 68 67 60 55 60 61 53
9 14 17 17 27 7 15 16 19 27 35 47 45 47 51 56 60 68 72 72 87 88 89 85 80 71 63 66 64 54 49 55 48 58 80 92 98 93 98 97 91 84 77 75 71 71 70 62 56
12 13 18 24 8 10 17 14 11 21 37 40 39 36 43 51 64 69 77 91 91 87 85 87 88 82 66 64 71 70 61 60 66 64 65 87 93 94 98 103 99 95 81 82 81 79 75 71 62
12 18 18 16 14 5 9 12 12 14 19 25 35 44 62 66 64 73 90 95 91 86 84 83 83 80 72 62 66 74 72 73 77 75 67 64 93 95 93 105 104 107 90 87 83 75 76 73 70
19 5 9 12 17 16 20 10 9 10 15 23 35 45 53 58 64 78 81 83 82 80 79 79 77 76 70 68 62 65 77 83 80 84 81 84 79 95 98 97 116 112 112 98 87 82 77 80 74
13 10 19 27 17 9 38 20 5 7 8 18 34 43 55 57 58 66 73 73 74 72 69 69 69 68 62 58 62 65 77 88 83 87 95 97 89 75 108 107 110 106 105 100 97 81 78 80 78
12 4 7 7 3 10 19 11 3 15 21 24 25 38 47 49 54 66 73 74 75 76 71 65 63 58 49 44 50 55 58 66 76 92 102 100 87 96 129 119 115 109 104 101 91 82 76 76 76
9 22 8 8 2 10 12 5 5 21 28 25 26 33 40 48 57 61 69 73 73 78 68 63 61 60 43 34 37 37 46 56 61 68 69 67 70 78 95 125 118 102 96 96 86 83 76 71 71
5 6 12 7 7 7 6 10 5 14 17 23 27 35 43 51 55 62 68 73 78 74 70 68 72 64 48 32 21 19 25 37 41 46 54 66 55 54 45 117 106 87 87 90 79 73 68 68 67
10 9 7 5 4 8 6 10 3 8 15 17 20 32 41 45 56 65 69 74 76 74 71 60 66 71 62 36 22 12 10 36 27 46 59 47 38 78 21 90 77 66 68 64 61 63 60 60 63
11 11 2 5 3 7 4 5 3 6 5 11 18 28 36 44 56 65 69 76 79 78 76 69 71 75 67 58 46 39 32 39 43 22 14 21 10 20 47 40 70 66 64 70 64 54 44 39 47
26 11 11 7 6 2 3 7 6 12 14 14 16 24 31 39 52 61 69 76 80 83 80 72 70 77 76 57 61 52 59 69 57 38 39 50 41 42 17 24 41 34 41 55 49 44 31 48 53
Wind_Direction_850mb
310 326 0 346 41 75 260 274 257 32 27 47 55 73 94 34 359 122 33 29 358 346 317 239 214 214 204 188 178 180 176 176 180 176 181 186 189 191 186 180 177 168 154 165 172 180 180 194 201
34 76 345 296 94 44 271 240 76 93 80 61 59 52 61 65 100 65 24 8 19 358 336 268 269 220 208 196 182 183 180 180 185 183 188 193 196 196 193 187 183 170 171 178 179 194 195 200 186
56 0 311 144 182 213 256 350 1 128 97 84 88 52 38 55 54 53 23 24 29 24 323 327 303 223 209 201 190 187 184 186 188 189 195 198 203 202 197 193 190 183 190 184 194 198 205 197 187
4 310 256 93 264 261 250 278 292 60 90 44 32 48 57 65 73 58 29 4 34 35 340 338 339 220 212 205 195 191 191 194 194 193 200 204 208 208 202 197 193 195 195 195 202 204 201 190 186
327 277 306 239 260 281 305 329 93 53 46 43 45 349 81 55 84 55 39 34 39 360 355 337 321 292 237 219 203 198 198 200 201 199 203 209 210 211 208 202 198 201 202 199 208 209 202 197 180
324 301 8 278 285 318 341 14 35 52 55 31 33 40 70 31 13 10 23 34 27 10 332 329 315 307 267 238 218 207 204 207 205 204 206 211 211 213 212 206 203 206 205 207 209 209 203 194 186
203 84 241 288 294 312 36 17 30 26 41 32 24 29 98 53 30 9 344 347 24 4 348 326 305 302 301 245 230 216 211 214 211 209 209 211 210 211 213 209 208 209 209 210 209 209 203 197 194
349 88 292 265 278 297 28 35 19 20 27 13 18 33 323 359 356 356 352 323 332 359 339 337 321 316 304 256 232 226 218 219 217 212 211 213 210 211 211 211 212 212 213 212 208 206 205 203 200
260 46 268 253 310 300 4 14 4 350 353 343 334 330 318 303 332 348 346 328 330 318 346 331 327 319 309 297 239 234 228 224 221 217 214 213 213 209 211 211 216 216 217 214 208 206 208 205 206
161 159 234 255 331 319 345 1 338 356 341 322 325 310 302 307 314 336 346 334 324 327 315 330 339 320 304 301 262 247 239 233 230 222 218 216 215 212 212 214 217 220 219 217 212 211 210 207 205
214 211 246 284 311 344 347 347 343 347 327 320 316 313 315 317 318 319 329 332 326 318 304 299 316 329 295 292 276 255 246 244 238 231 224 219 216 211 213 219 219 219 218 216 214 213 212 206 198
257 243 275 284 298 326 327 315 305 286 282 290 292 297 306 301 307 326 331 322 321 317 312 303 292 303 313 287 278 259 255 258 253 240 229 223 219 215 215 219 220 222 219 217 217 217 213 204 198
321 305 298 290 306 303 287 266 253 279 282 291 290 310 329 335 330 337 356 351 335 325 315 308 301 294 295 291 274 263 258 258 254 247 236 228 223 220 216 219 221 221 221 220 220 217 211 199 195
302 306 296 300 287 274 257 257 273 287 291 285 282 339 339 29 49 22 356 353 335 326 316 308 295 293 299 295 286 265 257 252 249 251 239 234 227 220 217 216 218 223 227 225 221 217 210 201 195
315 321 302 269 256 232 223 323 263 267 284 293 318 74 71 21 2 357 343 336 329 316 312 306 294 292 291 288 283 277 264 256 239 239 246 238 228 219 216 218 221 223 221 221 216 212 198 202 208
283 288 303 284 206 230 139 227 241 270 294 307 93 66 45 12 351 338 334 324 318 315 306 300 297 287 287 281 283 283 277 253 245 229 232 233 231 223 217 220 221 221 216 217 214 207 205 209 214
238 231 195 291 351 102 180 247 304 338 301 87 65 52 37 4 340 337 328 321 320 315 307 297 288 285 281 275 276 289 267 267 249 238 227 232 229 226 222 221 221 218 213 215 215 209 214 210 217
301 211 309 297 310 334 313 301 338 296 51 66 50 40 29 9 352 335 327 323 319 313 307 303 291 279 277 276 267 273 284 264 254 244 233 229 228 221 222 221 219 215 216 211 213 213 211 218 218
321 298 279 286 290 287 276 303 281 27 71 58 44 32 19 359 340 339 336 329 326 319 310 303 304 288 279 274 275 259 268 284 264 250 243 231 229 228 221 220 217 213 216 217 214 213 216 217 220
311 292 286 276 269 307 328 310 33 80 78 63 48 31 11 354 348 344 338 332 330 324 318 311 307 300 287 280 271 276 271 249 266 256 251 241 230 234 224 219 218 218 215 219 216 211 212 215 214
274 261 271 270 307 359 319 290 116 88 67 56 46 35 12 358 349 343 337 336 332 328 321 315 309 305 296 287 277 270 264 259 245 256 255 245 233 234 225 216 215 216 214 214 215 211 213 211 210
251 258 300 331 350 274 60 282 94 116 75 51 31 24 4 355 348 344 341 336 333 331 324 318 313 310 302 291 282 273 269 263 247 245 264 252 241 231 230 218 216 210 214 215 218 212 214 214 213
271 333 329 307 287 293 258 254 121 6 9 18 20 19 1 352 350 343 336 335 335 335 329 325 319 314 306 296 284 276 267 262 255 248 249 256 247 233 232 223 218 211 211 216 217 215 221 212 215
318 340 293 269 250 259 257 234 6 23 18 18 19 7 355 352 345 335 338 342 344 343 340 335 330 320 312 299 288 275 267 264 260 253 251 253 257 255 232 226 222 214 213 216 219 214 214 213 215
279 280 312 319 10 228 355 14 51 78 57 41 13 357 352 346 342 343 348 352 353 352 352 350 346 334 318 304 287 281 276 267 259 254 252 262 271 269 220 221 217 216 212 215 212 212 214 215 216
279 209 197 262 280 272 305 212 160 95 69 40 10 355 351 350 350 351 357 0 0 357 0 359 357 351 339 314 291 269 264 265 262 257 262 257 251 274 236 214 214 213 211 212 210 213 215 216 220
295 216 220 260 310 9 176 96 102 75 54 33 17 358 355 351 354 1 4 8 7 2 4 10 7 6 1 354 321 269 251 247 249 256 242 247 261 305 304 198 208 205 210 209 209 214 216 219 223
219 260 344 351 317 275 263 164 185 15 17 25 14 359 350 351 4 12 12 14 11 11 12 14 13 15 11 23 33 33 187 197 192 210 218 225 252 246 346 183 186 198 202 210 210 217 221 226 229
254 236 45 1 204 223 285 257 101 100 77 42 15 354 352 357 14 16 17 20 17 18 23 17 26 21 21 36 45 64 91 142 180 140 157 179 82 206 260 133 171 179 193 194 196 208 216 235 240
311 212 215 155 270 268 233 252 96 98 72 43 22 353 4 9 20 23 23 23 22 25 27 25 30 26 25 32 45 54 81 95 101 119 116 119 123 121 97 64 104 158 147 170 179 197 205 207 220